Simultaneous Nadir Overpasses (SNOs) Predictions

Prediction of SNOs between METOP-A and NOAA-19 Satellite Orbit:

Table of predicted SNOs for the next 14.0 days since TLE Epoch: 5/31/2015
Index Date (METOP-A) Time (METOP-A) Lat,Lon (METOP-A) SZA (METOP-A ) Date (NOAA-19) Time (NOAA-19) Lat,Lon (NOAA-19) SZA (NOAA-19 ) Distance(km) Time Diff (sec)
1 06/06/2015 01:21:50 75.00, 156.48 52.34 06/06/2015 01:20:42 75.00, 156.61 52.34 3.80 68
2 06/06/2015 02:12:31 -75.02, -36.13 127.65 06/06/2015 02:11:38 -75.00, -36.12 127.67 2.07 53
3 06/06/2015 03:03:12 74.98, 131.08 52.31 06/06/2015 03:02:44 74.97, 131.20 52.30 3.42 28
4 06/06/2015 03:53:53 -75.00, -61.53 127.68 06/06/2015 03:53:40 -74.97, -61.53 127.70 2.95 13
5 06/06/2015 04:44:34 74.95, 105.68 52.28 06/06/2015 04:44:46 74.94, 105.78 52.26 3.30 12
6
